sat.trackr.live / text

‹ back to catalog

2025-108D

NORAD 64090 · 2025-108D

PAYLOAD ACTIVE UNKNOWN

§ Identity

Operator
Country
PRC
Launch date
2025-05-21
Launch site
JSC
Launch vehicle
Mass (kg)
RCS (m²)

External: N2YO · Heavens-Above · Gunter

§ Orbital elements

Epoch: 2026-05-25T04:32:16.162080Z

Period
94.83 min
Inclination
97.4692°
Eccentricity
0.0013910
Mean motion
15.18561867 rev/d
Perigee alt
500.6 km
Apogee alt
519.8 km
Semi-major
6,888.3 km
B*
2.4246e-4
RAAN
221.0928°
Arg perigee
86.8356°
Mean anomaly
273.4469°
Rev number
5,587

§ Raw data

2025-108D1 64090U 25108D   26145.18907595  .00004954  00000+0  24246-3 0  99992 64090  97.4692 221.0928 0013910  86.8356 273.4469 15.18561867 55870

JSON: /api/v1/satellites/64090 · /tle

For live sub-satellite position, see the globe view (requires WebGL).

§ Visibility from observer

Set your observer location to see the next 7 days of passes ≥ 10°. The values pass through the URL so the page stays shareable.

No JS? Fill the form by hand. The geolocation button needs JavaScript.